Wind_Speed
28 29 27 21 18 21 19 17 14 15 13 12 11 9 8 6 5 3 2 1 2 3 5 8 11 13 15 16 17 18 18 19 13 20 21 26 28 29 28 27 25 26 27
28 27 25 24 21 20 19 18 14 13 12 11 10 8 7 5 4 2 1 1 3 5 8 11 14 16 17 16 13 13 15 16 18 20 22 25 27 29 30 28 26 23 24
27 27 24 23 21 18 19 18 15 14 13 11 9 8 7 5 3 2 2 3 5 8 11 13 15 15 15 13 16 17 14 13 16 21 24 26 30 29 30 29 27 27 25
30 25 25 24 24 23 20 17 15 13 12 11 9 8 7 5 3 2 3 5 8 11 12 13 12 12 14 16 16 15 16 19 19 21 24 26 25 28 26 25 25 25 28
30 29 27 25 23 20 20 17 15 14 13 11 10 9 7 5 4 2 5 8 11 13 12 11 11 12 11 12 15 17 19 22 21 21 19 19 19 20 21 25 25 26 29
27 27 26 24 22 21 21 18 16 15 13 12 10 8 6 4 3 5 7 9 11 11 11 12 13 15 17 19 17 16 17 21 21 21 19 15 19 22 23 22 25 20 9
26 26 24 24 24 22 21 19 16 14 13 11 8 5 4 4 3 3 7 10 10 11 13 15 16 17 22 20 18 21 19 17 20 24 23 20 23 23 23 23 18 16 18
29 28 26 25 24 21 20 18 16 13 10 8 5 5 4 4 3 4 6 8 11 13 13 13 16 20 21 19 22 22 19 19 21 21 22 25 23 20 19 19 16 18 19
27 27 25 24 23 21 19 16 13 11 8 6 6 5 5 5 3 2 5 9 13 13 12 13 16 19 18 19 21 22 21 22 18 15 20 21 20 18 17 18 16 14 14
26 25 23 22 21 19 17 14 12 9 8 7 7 6 5 4 5 5 8 11 12 14 14 15 19 16 18 20 20 18 22 21 16 20 21 19 17 16 14 14 15 14 12
25 24 22 20 19 16 14 12 10 9 8 7 6 5 5 5 6 8 8 9 12 10 16 18 19 17 20 18 18 18 18 18 20 19 19 19 19 19 17 17 16 16 14
25 24 21 18 16 14 12 11 9 7 6 5 4 6 7 8 8 6 8 9 11 14 16 19 17 18 17 17 14 15 16 16 18 18 18 19 20 22 20 18 16 16 15
24 22 19 16 14 11 10 10 8 6 5 6 8 9 9 9 7 6 8 10 12 14 16 12 15 15 14 12 13 14 14 16 16 16 17 19 21 20 20 19 18 17 19
23 20 17 15 13 11 9 8 7 6 6 7 7 6 7 7 8 8 10 14 16 15 9 16 14 12 12 12 15 16 16 15 15 18 18 20 19 19 17 19 21 22 19
21 18 15 13 12 11 9 6 5 5 5 3 3 4 7 8 8 9 12 15 15 13 12 16 15 17 18 18 19 18 18 17 19 17 17 17 17 18 20 19 21 20 11
20 17 15 14 11 10 8 8 6 4 2 1 2 5 5 5 8 9 11 13 11 12 12 13 15 15 14 16 17 17 15 18 19 19 19 20 20 21 20 22 20 19 17
19 17 14 12 11 9 7 6 5 3 1 1 4 4 4 6 7 9 10 10 11 8 13 13 14 15 16 16 17 17 18 20 19 21 21 21 21 21 20 21 20 19 20
15 14 13 12 9 8 7 5 3 2 1 3 4 4 5 7 8 9 10 9 11 11 14 14 14 15 16 17 17 18 19 20 20 21 21 21 21 21 21 20 20 19 19
16 14 12 11 9 8 6 4 3 2 3 4 5 4 7 7 7 8 7 8 11 12 15 16 15 15 16 16 17 18 18 19 18 20 22 21 21 21 20 18 18 16 14
14 12 12 11 9 9 7 6 3 2 3 5 6 6 9 9 10 12 10 11 12 12 15 16 16 16 15 16 17 17 17 18 19 19 19 20 20 18 18 18 15 15 16
14 13 11 10 9 9 7 5 3 2 5 6 7 6 8 7 12 11 12 12 13 14 15 16 16 17 15 16 16 17 17 17 18 16 16 20 19 18 16 15 14 14 15
13 12 11 10 9 8 5 3 3 4 5 6 7 7 8 9 12 12 12 12 13 13 13 15 17 16 14 15 16 18 17 18 19 17 18 20 17 16 15 14 14 14 15
12 12 11 10 9 6 5 4 3 4 5 6 8 9 9 10 12 12 12 12 13 13 13 16 16 15 14 13 14 16 16 17 19 17 15 17 16 14 14 13 13 13 13
11 11 11 9 7 6 5 5 4 5 6 8 9 10 11 12 13 12 12 12 12 13 13 16 15 14 15 15 15 15 15 16 18 19 16 14 15 14 14 13 13 11 11
11 11 10 9 6 7 9 8 7 7 8 10 11 12 13 13 13 13 12 12 13 13 15 16 15 15 14 14 15 16 12 14 15 16 14 14 12 11 12 12 12 11 10
10 10 10 10 7 9 10 11 11 11 12 12 13 13 13 13 15 13 12 11 13 14 15 14 15 14 12 14 14 13 14 13 15 13 14 13 11 10 9 10 11 10 8
Wind_Direction
176 178 179 190 183 175 165 168 165 165 167 160 158 160 158 146 136 129 136 113 353 359 336 325 324 325 322 321 318 313 308 304 286 303 306 315 318 322 325 324 320 316 312
174 174 173 167 166 160 158 150 163 156 153 154 148 152 144 137 127 115 137 41 12 342 335 327 324 325 323 326 326 327 320 312 303 302 313 318 321 325 324 323 324 324 321
165 164 161 158 156 152 152 144 150 149 149 139 146 145 136 133 135 135 71 37 351 333 332 332 331 330 328 327 325 321 317 316 310 305 307 317 320 325 325 322 320 319 320
158 155 158 151 150 157 142 139 145 144 141 142 142 135 132 144 123 90 29 348 331 334 337 337 337 333 332 330 327 320 319 315 312 304 305 308 311 319 317 311 311 312 312
151 160 152 149 143 141 134 144 145 143 141 142 138 128 123 109 86 17 340 339 340 340 343 341 340 343 337 337 328 322 318 313 310 307 299 297 302 310 308 308 299 303 306
152 143 142 136 140 143 143 144 142 140 139 134 125 121 111 78 23 350 343 351 354 352 343 346 348 341 338 333 328 320 316 314 310 304 298 289 300 305 305 308 301 289 308
143 137 140 147 143 144 143 143 138 136 131 125 118 106 77 75 14 353 354 3 4 2 358 348 346 349 340 336 333 325 317 314 313 313 311 305 298 303 315 310 318 309 302
140 144 149 148 141 141 139 137 135 134 129 115 97 75 67 68 30 358 348 358 1 0 353 349 343 335 335 327 323 327 336 327 323 314 304 310 308 318 319 314 311 313 310
144 148 149 142 142 142 137 136 133 130 124 109 87 69 55 40 54 33 348 357 347 348 348 341 331 325 321 323 335 331 333 337 335 334 329 323 319 316 319 327 326 321 319
147 142 141 145 143 141 139 138 133 126 109 100 91 62 45 59 59 36 0 344 345 340 337 330 328 323 326 334 334 337 335 332 337 334 334 331 331 331 330 328 327 308 312
141 138 141 144 142 141 138 134 127 116 109 98 82 75 57 34 3 353 359 351 338 331 330 326 332 333 333 334 331 330 329 335 334 334 338 339 340 339 332 326 321 315 300
141 140 138 141 142 140 136 125 121 119 113 99 76 51 27 6 1 5 347 334 330 327 328 329 336 334 330 329 332 334 332 331 335 339 334 331 332 334 334 333 329 322 308
140 139 140 141 139 134 131 131 126 124 111 71 42 30 14 8 0 354 339 336 335 331 331 336 335 330 332 337 341 339 340 344 342 336 328 327 332 332 332 334 335 335 324
146 146 145 140 134 134 133 129 129 115 84 46 28 0 340 334 346 351 347 341 339 345 337 340 340 343 347 348 348 350 351 347 338 334 327 326 327 327 327 334 334 339 328
152 148 147 148 149 143 136 123 103 73 53 28 350 331 328 335 333 337 341 343 344 343 336 340 353 356 352 350 345 349 349 351 346 338 329 322 323 328 326 341 339 338 323
155 158 159 158 154 152 144 122 99 96 103 138 318 335 326 321 332 337 344 344 341 338 341 355 349 345 338 335 335 337 339 342 346 340 335 339 336 334 331 334 341 340 329
165 165 164 165 163 157 146 145 149 137 138 271 327 334 335 337 343 338 344 341 340 341 360 352 344 339 336 338 342 340 333 345 346 346 341 341 341 336 334 336 338 337 333
171 170 171 170 170 167 167 168 165 172 279 330 351 331 342 339 339 341 337 331 352 358 357 348 341 342 341 342 343 342 341 343 345 343 343 344 343 338 336 336 336 331 328
175 175 177 176 177 178 178 179 188 260 290 320 331 340 345 338 336 340 340 344 344 345 347 343 341 340 340 340 341 342 342 341 338 343 346 346 345 342 339 340 339 335 336
179 180 181 182 182 187 191 193 228 270 309 314 328 318 333 325 346 352 343 343 341 335 336 337 336 336 337 337 338 339 337 340 343 346 342 341 345 348 350 347 348 348 346
183 182 187 187 193 197 198 212 244 271 315 300 300 315 313 323 341 333 328 330 331 330 329 329 330 330 329 331 333 334 331 330 332 337 337 344 344 347 350 350 353 356 351
191 191 195 200 201 202 212 232 264 264 290 301 305 303 309 316 324 321 320 320 321 321 321 324 327 326 324 323 326 331 328 327 327 332 341 345 343 341 343 346 348 350 354
200 203 206 210 211 212 213 256 258 280 291 298 313 312 306 311 317 316 313 314 316 318 318 324 327 324 326 325 326 329 331 331 331 327 328 341 336 336 335 337 340 340 347
215 217 216 216 217 230 239 250 260 275 280 307 306 307 301 307 313 312 308 310 314 314 315 324 325 322 321 321 323 324 318 323 328 330 322 323 326 323 328 334 335 336 340
221 221 220 220 226 253 255 265 267 287 290 302 307 305 299 301 308 308 304 307 311 311 317 323 322 319 317 322 324 325 325 328 330 329 330 335 322 320 333 340 343 346 348
235 234 233 223 242 261 259 265 272 274 286 298 304 302 298 297 305 304 301 305 307 310 321 323 323 323 322 326 326 324 325 326 329 333 330 332 336 337 342 341 349 355 359
Height
772 780 786 792 794 798 801 808 813 816 819 819 821 825 827 828 829 830 832 832 833 831 833 833 833 832 829 828 825 823 821 819 814 808 807 805 801 798 795 792 788 783 779
772 779 786 792 797 800 803 805 814 816 818 820 822 827 828 828 829 831 833 832 831 832 832 831 830 828 826 824 822 820 818 816 812 805 803 800 797 794 790 786 782 779 775
772 781 786 790 797 802 806 806 813 816 820 820 825 827 828 830 831 832 832 830 831 832 830 828 827 825 823 822 819 817 815 813 810 805 799 797 793 790 784 780 777 774 771
774 779 789 792 795 807 803 808 815 817 820 823 827 828 829 832 831 830 830 830 831 829 827 826 825 824 821 819 817 815 812 809 806 803 798 793 790 785 781 776 771 769 766
775 785 789 795 796 802 802 811 816 820 823 826 827 828 830 830 830 830 830 829 828 826 825 825 823 821 819 817 815 812 809 806 802 799 795 790 785 781 778 774 770 765 761
783 785 788 790 797 805 808 814 818 822 825 826 827 828 829 830 829 829 828 828 826 825 825 822 820 819 817 814 811 809 807 802 799 794 790 786 781 779 775 772 768 763 758
781 783 791 798 802 808 812 816 820 823 824 826 827 829 829 829 829 828 828 827 827 825 822 820 818 817 814 810 808 806 803 800 797 792 787 783 778 776 772 768 764 762 757
783 789 797 802 805 810 813 817 821 823 825 826 828 828 828 829 829 828 827 827 826 823 821 819 817 815 812 809 806 802 799 796 792 788 784 780 775 772 770 766 761 758 755
787 793 799 801 807 812 814 818 821 823 826 827 827 827 828 828 828 829 827 825 824 822 820 819 817 814 811 807 802 798 794 791 788 785 782 778 774 771 767 763 759 756 751
792 795 798 804 808 813 816 820 822 824 824 825 826 827 827 828 828 827 826 824 822 821 820 818 815 811 807 803 799 795 791 788 785 782 778 775 771 767 764 761 758 755 751
793 796 802 808 812 815 818 820 821 822 823 825 826 828 827 826 825 824 823 822 822 820 818 815 810 807 803 801 798 794 791 787 783 780 776 772 768 765 762 759 756 753 750
796 801 806 810 814 816 817 819 820 822 824 826 826 825 824 823 823 823 823 822 820 818 814 810 806 804 802 798 795 792 789 786 782 777 774 770 766 762 759 756 752 749 746
799 803 808 812 815 816 817 819 821 823 824 824 822 822 823 823 823 823 821 820 818 814 811 807 805 802 799 796 793 790 787 783 779 776 772 768 765 761 756 753 749 745 741
802 806 810 812 814 816 818 820 822 822 821 821 821 823 823 823 821 820 818 816 814 810 808 806 803 800 797 795 791 788 784 781 779 775 771 767 762 758 754 751 747 742 738
803 806 809 812 815 817 819 820 820 819 820 821 822 822 821 820 819 818 816 813 810 809 806 803 800 797 795 792 789 786 782 779 776 773 770 766 761 757 753 749 745 741 738
803 806 809 812 814 816 817 817 818 819 820 821 821 820 819 818 817 815 813 811 809 807 805 802 799 797 795 792 789 785 782 778 775 772 768 764 759 755 751 747 743 740 736
803 806 809 811 813 814 815 817 818 819 819 820 819 819 818 816 815 813 812 810 808 806 804 801 799 797 794 791 788 784 781 777 774 770 767 762 758 754 750 745 742 738 734
803 806 808 810 811 813 815 816 817 818 818 818 817 817 815 814 813 811 810 808 806 804 802 800 797 795 792 789 786 783 780 776 772 769 765 761 757 753 748 744 741 737 733
802 804 807 809 811 812 814 815 816 817 816 816 815 814 814 812 811 810 808 807 804 801 800 798 795 793 790 788 785 782 779 775 772 768 764 759 756 752 747 744 740 737 733
801 804 806 808 810 812 813 814 814 814 814 814 813 812 811 810 809 807 805 803 801 800 798 796 793 791 788 786 783 780 777 774 770 767 763 759 755 751 747 743 740 737 733
801 803 805 807 809 810 811 812 812 812 812 812 811 811 810 808 807 805 803 801 799 797 795 793 791 788 786 783 781 778 775 772 769 765 762 758 754 750 747 743 740 737 734
800 802 804 806 807 808 809 809 810 810 810 810 809 808 807 806 804 802 800 798 797 795 793 791 788 786 783 781 778 775 772 769 766 763 760 756 753 749 746 743 740 737 734
799 801 803 804 805 806 807 807 808 808 808 807 806 805 804 803 802 799 797 796 794 792 790 788 785 783 781 778 776 773 770 767 764 760 757 754 751 748 745 742 739 737 734
797 799 800 802 803 804 805 805 806 806 806 805 803 802 801 800 798 796 795 794 791 789 788 785 783 780 777 775 773 770 767 765 761 758 755 752 749 746 744 741 738 736 734
795 796 798 799 801 802 803 803 803 803 802 801 800 798 798 796 795 793 791 790 788 786 784 782 780 777 774 771 769 766 764 762 759 755 753 750 747 745 742 740 737 735 733
793 794 795 796 798 798 799 799 798 798 797 796 795 794 793 792 791 789 787 786 785 783 781 779 776 773 771 768 766 763 762 759 756 753 750 748 745 743 741 739 737 735 733